Location: Arlington
(40.6323°N, 74.1651°W)
Time: 17:52:24
(UTC+00:00)

ISS - Pass Details

Date: 22 November 2019
Orbit: 412 x 421 km, 51.6° (Epoch: 05 December)

Event Time Altitude Azimuth Distance (km) Brightness Sun altitude
Rises 22:00:26 0° 195° (SSW) 2,336 0.6 -5.4°
Reaches altitude 10° 22:02:58 10° 175° (S) 1,481 -0.7 -5.8°
Maximum altitude 22:05:16 18° 131° (SE) 1,113 -1.9 -6.2°
Drops below altitude 10° 22:07:35 10° 87° (E) 1,493 -1.6 -6.7°
Enters shadow 22:08:03 - 82° (E) 1,633 -1.4 -6.7°
